Weather in Karabay-Shemursha

Russia / Chuvash Republic     54°57′53″N   47°31′11″E
temp.,
°C
wind,
m/s
gust,
m/s
humid.,
%
clouds,
%
prec.,
mm/h
press.,
hPa
HPBL,
m
13 june, sun
sun1300:00+15sse349591 0.0 101174
03:00+14sse239368 0.0 101148
06:00+17s358666 0.1 1011200
09:00+22s45681 0.3 1011733
12:00+23s685951 1.0 10111363
15:00+23ssw6106540 1.4 10111313
18:00+21ssw498038 1.3 1011463
21:00+17s499189 2.2 1012206
14 june, mon
mon1400:00+16ssw4109512 0.4 1013213
03:00+15ssw3894100 0.4 1014146
06:00+18ssw3589100 0.0 1015207
09:00+22ssw35700 0.0 1015832
12:00+25ssw455912 0.8 10161391
15:00+25ssw4561100 0.9 10151300
18:00+23wnw2376100 1.1 1015141
21:00+19nnw1185100 1.2 101512
15 june, tue
tue1500:00+17n118861 1.2 101513
03:00+16nne2288100 1.2 101411
06:00+18ne2588100 0.0 1014164
09:00+23e347492 0.0 1014608
12:00+23se347575 0.1 1013601
15:00+25sse446799 0.9 1012937
18:00+21s378287 4.0 1012141
21:00+20sse2285100 4.7 101217
16 june, wed
wed1600:00+18se338892 0.0 101135
03:00+18ese3692100 0.0 1010119
06:00+19e388983 0.0 1009241
09:00+23ese4771100 0.0 1008532
12:00+26se565688 0.0 10061203
15:00+27s23535 0.0 10051442
18:00+24w58725 0.1 1005344
21:00+19wnw6119333 0.2 1007455
17 june, thu
thu1700:00+17nw71286100 0.1 1010752
03:00+14nw714880 0.1 1012515
06:00+14nnw714760 0.0 1015694
09:00+17nnw813590 0.0 10161319
12:00+19nnw811544 0.0 10181945
15:00+20nnw79545 0.0 10192344
18:00+18nnw48634 0.0 1019484
21:00+15nne2768100 0.0 1021207